Zurück zum Katalog

COSMOS 970 DEB

AktivLEO
NORAD 64992·DEBRIS·🇷🇺 Russia

Gestartet Dec 21, 1977 von Baikonur Cosmodrome

Loading…

Nächste Überflüge (nächste 24 Stunden)

TLE

AktuellSource: Space-Track

Epoche: Sep 13, 2026, 14:49 UTC

1 64992U 77121DD  26256.61740059 -.00000045  00000-0  44405-4 0  9992
2 64992  65.8514  28.8433 0116807 255.1204 117.6741 13.54543763633494

Verfolge COSMOS 970 DEB in Echtzeit mit AllMySat

Download on the App Store